LEMUR-2-DELOITTE-5

导读

LEMUR-2-DELOITTE-5(NORAD 69910)是美国Spire Global公司研制的3U立方星,隶属于LEMUR-2低轨纳星星座,是该商业星座组网卫星之一,单颗发射质量约4-4.6千克,运行于400-600公里高度的近地轨道(多为太阳同步轨道)。 该卫星搭载无线电掩星探测载荷、船舶自动识别系统(AIS)与航空器广播式自动相关监视系统(ADS-B)载荷,可获取大气温压湿数据服务气象预报、空间天气研究,同时实现全球船舶、航空器跟踪监测,相关数据由Spire Global商业化运营,为海洋监管、航空管控和商业遥感领域提供数据支撑。作为近年发射的新一代组网卫星,目前处于在轨服役状态,补充完善LEMUR-2星座的全球观测覆盖能力。

基本信息
目录编号:
69910
目录名称:
LEMUR-2-DELOITTE-5
国际标识:
2026-156AT
轨道中心:
EARTH
卫星名称:
LEMUR-2-DELOITTE-5
卫星全名:
LEMUR-2-DELOITTE-5
卫星状态:
在轨 (已飞行60 天)
发射日期:
2026-07-07 UTC
国别 :
美国 (US)
星等 :
--
轨道信息
数据来源 国际轨道数据
星历时间: 2026-09-05T03:10:09+0800
5小时前
查看轨道信息
半长轴: 6972.205km
偏心率: 0.0002378
轨道倾角: 97.748°
近地点辐角 340.100°
升交点赤经 147.210°
平近点角 20.013°
近地点: 592.41km
远地点: 595.726km
周期: 96.564分钟
每日圈数: 14.912403
详细信息
使用方式:
暂无
2D轨道图
3D轨道图
轨道高度分析图
轨道倾角分析图
轨道综合分析图
查看轨道综合分析图
交会数据列表
事件ID 空间交会对象 最接近时刻(TCA) 交会距离 交会风险概率(CRP) 交会风险指数(CRI) 操作
CDM_260906-013002-626206-991022
CZ-4 DEB (26262)
2026-09-06T
01:30:45+0000
0.924 km
远距离
3.527004E-5 中风险 0.66
CDM_260907-011006-270406-991021
2026-09-07T
01:10:08+0000
1.054 km
极远距离
2.282673E-5 中风险 0.62
CDM_260905-134405-555606-991022
2026-09-05T
13:44:11+0000
1.679 km
极远距离
4.727653E-6 低风险 0.48